User: anonymous   Login
Location: Unspecified
(0.0000°N, 0.0000°E)
Time: 02:11:21
(UTC+00:00)
Language:

Kosmos-2195 - Orbit

View from above orbital plane
View from above orbital plane
View from above satellite
View from above satellite

Ground track
Ground track

The orbit data is extracted from the following two-line orbital elements,

1 22006U 92036A   24111.53654576  .00000151  00000-0  14174-3 0  9997
2 22006  82.9306 282.4412 0035989 313.2059 105.5694 13.75068625595888
Epoch (UTC): 20 April 2024 12:52:37
Eccentricity: 0.0035989
inclination: 82.9306°
perigee height: 955 km
apogee height: 1008 km
right ascension of ascending node: 282.4412°
argument of perigee: 313.2059°
revolutions per day: 13.75068625
mean anomaly at epoch: 105.5694°
orbit number at epoch: 59588

The dashed part of the orbit path shows where the satellite is in the earth's shadow,  

DLR